MPEC 2002-J51 : 2002 JN97

The following Minor Planet Electronic Circular may be linked-to from your own Web pages, but must not otherwise be redistributed electronically.


Read MPEC 2002-J50 Read MPEC 2002-J52


M.P.E.C. 2002-J51                                Issued 2002 May 14, 15:56 UT

     The Minor Planet Electronic Circulars contain information on unusual
         minor planets and routine data on comets.  They are published
   on behalf of Commission 20 of the International Astronomical Union by the
          Minor Planet Center, Smithsonian Astrophysical Observatory,
                          Cambridge, MA 02138, U.S.A.

             Prepared using the Tamkin Foundation Computer Network

                              MPC@CFA.HARVARD.EDU
          URL http://cfa-www.harvard.edu/iau/mpc.html  ISSN 1523-6714

                                   2002 JN97

Observations:
     K02J97N* C2002 05 13.14229 09 03 51.75 +28 16 10.3          19.3        704
     K02J97N  C2002 05 13.17193 09 03 57.82 +28 15 36.8          18.9        704
     K02J97N  C2002 05 13.18677 09 04 00.97 +28 15 18.3          19.3        704
     K02J97N  C2002 05 13.20173 09 04 03.92 +28 15 01.4          19.3        704
     K02J97N  C2002 05 13.83150 09 06 13.24 +28 02 53.0                      246
     K02J97N  C2002 05 13.83256 09 06 13.46 +28 02 51.9                      246
     K02J97N  C2002 05 13.83347 09 06 13.59 +28 02 51.0                      246
     K02J97N  C2002 05 13.83434 09 06 13.76 +28 02 49.3                      246
     K02J97N  C2002 05 13.83527 09 06 13.96 +28 02 48.5                      246
     K02J97N  C2002 05 13.83624 09 06 14.14 +28 02 47.3                      246
     K02J97N  C2002 05 13.83983 09 06 14.85 +28 02 43.4                      246
     K02J97N  C2002 05 13.84068 09 06 14.99 +28 02 42.6                      246
     K02J97N  C2002 05 13.84154 09 06 15.22 +28 02 41.3                      246
     K02J97N  C2002 05 13.84230 09 06 15.27 +28 02 41.0                      557
     K02J97N  C2002 05 13.84256 09 06 15.41 +28 02 39.9                      246
     K02J97N  C2002 05 13.84558 09 06 15.99 +28 02 36.5                      557
     K02J97N  C2002 05 13.84721 09 06 16.32 +28 02 34.5                      557
     K02J97N  C2002 05 13.85047 09 06 17.12 +28 02 30.7                      557
     K02J97N  C2002 05 14.15005 09 07 17.81 +27 56 48.0          19.8 R      858
     K02J97N  C2002 05 14.15326 09 07 18.46 +27 56 43.6          19.7 R      858
     K02J97N  C2002 05 14.15648 09 07 19.17 +27 56 40.4          20.2 R      858

Observer details:
246 Klet Observatory-KLENOT.  Observers M. Tichy, M. Kocer.  1.06-m KLENOT
    telescope + CCD.
557 Ondrejov.  Observer P. Kusnirak.  0.65-m f/3.6 reflector + CCD.
704 Lincoln Laboratory ETS, New Mexico.  Observers M. Blythe, F. Shelly,
    M. Bezpalko, R. Huber, L. Manguso, S. Adams, J. Piscitelli.  Measurers
    J. Stuart, R. Sayer, J. B. Evans, H. Viggh.  1.0-m f/2.15 reflector + CCD.
858 Tebbutt Observatory, Edgewood.  Observer F. B. Zoltowski.  0.3-m f/3.3
    Schmidt-Cassegrain + CCD.

Orbital elements:
2002 JN97                                                            PHA 0.025
Epoch 2002 May 6.0 TT = JDT 2452400.5                   MPC
M  72.68050              (2000.0)            P               Q
n   0.87093140     Peri.  312.15748     +0.82280883     -0.54588231
a   1.0859590      Node    81.51323     +0.55709839     +0.71971597
e   0.6294330      Incl.    9.19868     +0.11237001     +0.42897719
P   1.13           H   17.6           G   0.15
From 21 observations 2002 May 13-14.

Ephemeris:
2002 JN97                a,e,i = 1.09, 0.63, 9                   q = 0.4024
Date    TT    R. A. (2000) Decl.     Delta      r     Elong.  Phase     V
2002 05 06    08 37.29   +30 33.9    1.019    1.287    78.8    50.2    20.1
2002 05 16    09 13.43   +27 21.4    1.158    1.367    77.8    46.3    20.4
2002 05 26    09 43.24   +24 13.7    1.302    1.438    75.6    43.0    20.6
2002 06 05    10 08.88   +21 14.4    1.448    1.501    72.7    40.2    20.9
2002 06 15    10 31.75   +18 23.5    1.593    1.557    69.3    37.6    21.1
2002 06 25    10 52.75   +15 40.0    1.735    1.606    65.5    35.1    21.3
2002 07 05    11 12.45   +13 02.9    1.872    1.649    61.4    32.8    21.4
2002 07 15    11 31.29   +10 30.9    2.003    1.684    57.2    30.5    21.6
2002 07 25    11 49.54   +08 03.4    2.125    1.713    52.8    28.2    21.7
2002 08 04    12 07.44   +05 39.7    2.238    1.736    48.3    25.9    21.7
Timothy B. Spahr             (C) Copyright 2002 MPC           M.P.E.C. 2002-J51

Read MPEC 2002-J50 Read MPEC 2002-J52


Our Web policy. Index to the CBAT/MPC/ICQ pages.

MPC